Regional Weather Roundup
Issued by NWS Jackson, KY

Home | Current Version | Previous Version | Graphics & Text | Print | Product List | Glossary On
Versions: 1 2 3 4 5 6 7 8 9 10 11 12 13 14 15 16 17 18 19 20 21 22 23 24 25 26 27 28 29 30 31 32 33 34 35 36 37 38 39 40 41 42 43 44 45 46 47 48 49 50
261
ASUS43 KJKL 171510
RWRJKL

EAST KENTUCKY HOURLY WEATHER ROUNDUP
NATIONAL WEATHER SERVICE JACKSON KY
1000 AM EST SAT FEB 17 2018

NOTE: "FAIR" INDICATES FEW OR NO CLOUDS BELOW 12,000 FEET WITH
NO SIGNIFICANT WEATHER AND/OR OBSTRUCTIONS TO VISIBILITY.

* THESE REPORTS ARE NOT UNDER NWS QUALITY CONTROL AND MAY NOT
  REPORT WEATHER SUCH AS PRECIPITATION AND FOG.

KYZ079-080-083-085-087-088-110-112-115-119-120-171600
...EASTERN KENTUCKY...

CITY           SKY/WX    TMP DP  RH WIND       PRES   REMARKS
JACKSON        CLOUDY    37  35  92 CALM      30.10F FOG
LONDON         LGT RAIN  40  37  89 E5        30.08F FOG
SOMERSET*      CLOUDY    37  37 100 CALM      30.11S
WILLIAMSBURG*  CLOUDY    41  41 100 E3        30.08F
MIDDLESBORO*   RAIN      43  42  95 CALM      30.12F
HARLAN APT*    CLOUDY    41  37  87 NE3       30.09F
PIKE CO APT*   CLOUDY    38  38 100 W3        30.12R
BIG SANDY APT* CLOUDY    38  38 100 CALM      30.12F
MOREHEAD APT*    N/A     36  32  87 NE5       30.15F WCI  32
ASHLAND*         N/A     37  32  82 NE5       30.18F WCI  33
$$

KYZ035-036-041-042-044-050-067-078-099-171600
...CENTRAL KENTUCKY...

CITY           SKY/WX    TMP DP  RH WIND       PRES   REMARKS
MT STERLING*     N/A     36  32  87 E8        30.13F WCI  29
FLEMING/MASON*   N/A     34  32  92 E7        30.13F WCI  28
DANVILLE*      CLOUDY    36  34  93 E5        30.09F WCI  32
LEXINGTON      PTSUNNY   37  32  82 E10       30.09F WCI  30
FRANKFORT        N/A     37  29  72 NE6       30.10F WCI  32
LOUISVILLE     CLOUDY    38  31  76 E6        30.10F WCI  33
LEBANON*         N/A     36  32  87 E7        30.07F WCI  30
GLASGOW*       LGT RAIN  38  38 100 E3        30.08F
BOWLING GREEN  LGT RAIN  40  37  89 E3        30.08F FOG
$$

KYZ091>093-OHZ055-061-077-WVZ005-015-034-035-042-171600
...SOUTHERN OHIO/WEST VIRGINIA...

CITY           SKY/WX    TMP DP  RH WIND       PRES   REMARKS
COVINGTON      CLOUDY    34  29  82 SE8       30.11F WCI  27
COLUMBUS       CLOUDY    33  25  72 SE6       30.18S WCI  28
DAYTON         CLOUDY    32  27  81 SE6       30.13F WCI  26
WILMINGTON     CLOUDY    32  28  85 SE8       30.13F WCI  25
HUNTINGTON       N/A     36  31  82 E5        30.15S WCI  32
CHARLESTON     CLOUDY    37  34  89 VRB3      30.15F
BECKLEY        CLOUDY    37  31  78 S16G24    30.11F WCI  28
BLUEFIELD      CLOUDY    37  30  75 S16G28    30.15R WCI  28
LOGAN CO APT*    N/A     39  36  87 CALM      30.12R
$$

VAZ002-007-008-TNZ017-027-036-066-071-171600
...SOUTHWEST VIRGINIA/EAST TENNESSEE...

CITY           SKY/WX    TMP DP  RH WIND       PRES   REMARKS
WISE*          LGT RAIN  43  43 100 S5        30.12S
JONESVILLE*    LGT RAIN  41  39  93 CALM      30.12F
ABINGDON*      LGT RAIN  44  40  86 E12       30.13F
BRISTOL        CLOUDY    44  42  93 E5        30.11F
MORRISTOWN*    CLOUDY    45  39  81 NE6       30.08F
SEVIERVILLE*   CLOUDY    46  43  87 N3        30.08F
KNOXVILLE      LGT RAIN  45  43  93 NE6       30.07F FOG
LAFOLLETTE*    PTSUNNY   43  39  87 CALM      30.13F
OAK RIDGE      CLOUDY    45  40  82 VRB3      30.10F
CROSSVILLE     CLOUDY    43  39  86 SE5       30.03F
NASHVILLE      RAIN      41  39  93 NE7       30.06F VSB 1
$$

...KEY TO REMARKS...
VSB - VISIBILITY IN MILES
WCI - WIND CHILL INDEX
HX  - HEAT INDEX

$$




USA.gov is the U.S. government's official web portal to all federal, state and local government web resources and services.